Wetbulb
61.08 61.13 60.90 61.09 61.27 61.33 61.58 62.01 62.09 62.01 61.82 61.77 61.61 61.00 60.60 60.69 60.07 55.80 49.81 55.37 56.96 62.26 60.71 52.92 53.37 53.00 53.91 52.43 53.00 51.76 44.35 42.61 43.84 44.21 44.83 48.51 45.95 47.44 48.02 48.78 47.95 51.52 52.35 58.19 63.56
60.63 60.55 60.59 60.65 60.72 60.47 60.45 61.08 61.58 61.52 61.49 61.28 61.03 60.55 60.45 60.29 53.96 50.85 57.99 63.13 62.61 62.91 54.23 51.17 49.95 51.37 48.79 50.37 50.42 47.19 43.84 46.04 49.05 46.43 46.45 47.94 48.10 48.01 44.95 46.27 46.56 50.21 54.13 62.19 62.86
60.03 60.03 60.13 60.17 60.70 60.34 60.27 60.80 61.04 61.03 61.13 60.59 60.56 60.21 60.05 58.06 49.99 49.24 62.27 62.24 62.34 62.42 55.56 53.73 52.19 50.66 47.57 49.75 48.45 47.52 45.42 48.05 48.07 48.40 49.90 48.59 47.39 48.89 45.48 44.28 47.10 48.52 53.84 60.13 60.84
59.50 59.50 59.56 59.50 60.26 60.20 60.51 60.81 60.74 60.39 60.73 60.22 60.08 59.77 59.09 54.79 40.31 53.90 61.06 62.06 62.40 57.74 53.22 52.07 50.15 47.09 46.21 45.89 48.82 45.19 47.33 46.94 48.89 47.85 48.71 48.24 49.42 45.70 46.53 45.23 49.25 50.16 55.79 59.26 59.35
58.63 58.74 58.72 59.26 59.58 59.97 60.35 60.65 60.38 59.82 59.83 59.61 59.61 59.17 55.00 47.72 48.44 56.87 61.34 61.96 60.12 55.88 51.03 50.22 48.07 47.26 44.39 46.21 46.33 44.91 45.93 46.62 47.86 47.07 47.24 48.82 46.62 45.11 46.48 48.25 49.22 51.49 55.67 57.51 58.99
58.16 58.04 58.39 58.72 58.93 59.89 60.14 60.25 59.78 59.54 59.35 59.38 59.43 58.85 52.64 42.75 54.40 57.69 57.48 58.27 55.34 52.58 50.77 50.90 48.94 49.37 46.55 45.47 44.92 45.76 45.87 45.45 46.13 45.35 46.00 45.86 43.57 44.37 46.97 48.84 48.25 49.22 50.59 54.99 57.10
57.79 57.63 57.95 58.40 58.80 59.42 59.78 59.72 59.29 59.20 59.05 58.82 59.19 54.41 48.56 47.73 55.00 56.77 54.07 52.96 53.30 52.36 50.17 51.74 50.82 48.11 47.38 44.71 46.46 45.72 42.68 43.32 43.62 44.64 43.21 43.98 41.21 41.84 43.99 45.45 46.94 47.62 47.77 49.89 53.35
57.43 57.22 57.61 58.02 58.39 59.08 59.31 59.19 58.95 58.71 58.94 59.41 59.44 53.66 45.94 53.92 55.39 54.93 54.68 52.56 52.97 52.89 52.52 51.86 51.18 49.96 47.64 46.67 44.31 41.43 41.09 37.37 43.21 43.67 43.57 42.07 37.88 45.25 46.40 44.44 44.23 44.54 44.30 45.85 48.87
56.88 56.85 57.43 57.63 57.76 58.46 58.78 58.62 58.22 58.53 58.62 58.93 53.21 50.87 44.27 54.01 51.37 54.00 53.96 50.88 51.26 51.69 51.64 51.74 51.02 46.86 45.98 41.10 37.67 38.72 33.84 37.03 39.21 44.56 42.90 41.11 39.06 43.60 43.89 43.54 42.53 43.41 44.14 45.00 46.29
56.70 56.75 57.16 57.26 57.48 58.03 58.13 57.77 57.94 57.90 56.21 54.73 52.24 46.03 46.77 45.41 51.16 52.41 53.36 52.66 49.82 49.41 48.02 47.96 45.87 41.86 40.79 38.36 31.80 34.82 34.32 37.02 36.73 39.35 40.03 38.71 39.49 41.91 43.12 43.37 42.19 43.21 43.96 43.84 44.79
56.66 56.75 56.96 56.88 57.66 58.23 56.28 53.95 48.66 45.87 48.28 43.63 44.65 44.65 46.09 50.77 52.71 50.14 52.09 50.63 49.79 46.84 40.57 44.24 39.11 35.84 38.66 40.50 39.91 37.32 37.44 36.38 38.44 40.36 38.54 38.41 39.14 41.64 43.30 42.33 42.62 43.25 43.44 44.32 45.30
56.65 56.79 56.76 56.82 57.90 57.47 53.85 46.66 46.92 48.49 41.02 47.25 46.79 46.74 49.65 50.54 45.18 48.10 51.56 45.93 45.03 39.74 42.89 39.76 35.45 41.72 43.17 41.81 39.56 37.99 36.44 35.35 37.78 40.75 37.84 37.86 38.24 41.62 42.68 42.58 43.46 43.46 43.23 44.25 44.89
56.46 56.45 56.32 56.74 57.39 54.75 50.61 48.32 51.58 49.98 40.42 42.65 45.89 45.98 46.76 49.27 44.72 45.31 48.10 46.23 43.11 40.21 40.53 37.22 39.90 43.56 42.13 39.13 38.34 36.51 35.72 34.94 36.10 37.56 37.25 34.19 34.35 37.74 41.48 43.56 43.93 44.51 44.99 45.07 45.56
56.27 56.11 56.04 56.91 53.29 52.12 48.75 51.69 52.84 50.34 35.17 37.13 40.63 44.25 47.43 48.16 43.40 49.14 49.19 46.20 43.02 40.16 40.76 39.74 41.73 41.35 39.56 38.19 38.81 34.25 38.78 38.52 36.83 34.50 29.38 34.67 26.80 34.35 38.21 39.72 41.55 42.88 42.95 43.74 44.55
55.92 55.79 56.15 56.17 52.13 48.56 50.93 53.55 53.03 46.97 23.62 39.22 40.48 49.14 47.66 43.49 43.81 44.06 47.71 44.74 40.48 40.54 40.92 37.56 38.19 38.62 37.72 38.60 40.04 36.30 39.30 37.81 36.74 33.08 30.78 30.39 28.10 32.32 36.62 36.54 39.61 41.28 42.25 43.02 43.54
55.69 55.54 55.98 54.27 53.26 52.07 53.39 53.21 49.30 33.34 24.64 35.22 39.95 39.97 40.69 42.65 42.32 43.71 43.50 45.19 44.09 40.61 40.35 38.09 40.55 40.31 39.54 39.33 40.24 40.30 37.27 36.77 34.32 32.67 25.08 31.46 30.65 30.38 34.61 37.52 38.03 39.33 41.71 44.34 44.59
55.40 55.34 54.55 54.67 48.96 53.83 53.35 47.82 32.08 26.09 38.34 33.55 34.59 39.22 38.63 37.86 39.23 40.22 38.93 37.43 35.30 32.09 31.78 36.08 35.81 37.79 40.29 36.17 37.77 37.33 33.76 25.07 23.76 23.09 23.01 29.77 28.75 33.09 37.48 38.37 39.26 40.94 42.09 42.63 44.16
55.21 55.14 53.83 53.75 53.77 53.83 49.69 38.57 24.08 32.76 34.85 38.95 37.80 37.93 35.08 38.00 37.92 38.95 37.02 34.66 38.43 36.82 34.07 30.57 28.10 35.58 38.69 37.04 34.26 34.52 34.11 26.65 19.75 21.68 23.58 27.32 25.58 31.56 39.93 39.51 38.83 40.36 42.38 42.70 43.02
55.10 53.48 51.98 52.53 53.82 52.45 42.44 29.44 28.02 34.29 39.13 36.87 37.10 33.49 33.88 36.53 37.19 37.30 36.17 35.54 37.99 38.66 32.57 32.05 31.89 38.37 38.65 38.07 38.72 33.87 30.41 34.90 26.87 19.81 22.42 26.98 31.37 37.34 38.64 38.27 39.00 38.56 41.23 41.57 42.32
52.30 50.26 48.63 53.42 53.88 48.81 37.87 32.41 37.25 41.22 41.04 39.08 32.59 35.49 31.34 33.92 34.27 34.98 34.96 38.54 38.03 40.43 40.54 36.12 29.54 36.14 36.66 38.11 37.33 35.35 37.69 28.57 28.83 17.05 17.62 24.92 26.07 30.65 34.28 36.67 37.84 38.04 39.18 41.14 42.39
46.89 42.49 44.77 52.90 51.50 42.58 32.19 33.76 39.13 41.53 42.43 38.00 36.63 35.03 35.66 34.43 34.97 34.35 35.06 37.59 40.82 39.72 40.86 37.30 35.09 30.60 34.70 32.77 32.76 32.48 32.03 33.19 32.89 29.28 22.52 20.03 26.39 35.09 36.85 38.28 37.81 37.61 39.96 41.30 41.79
41.36 34.73 45.04 50.61 37.44 36.94 33.03 38.03 41.38 40.42 43.24 41.35 40.40 38.72 36.54 36.31 34.52 34.29 34.58 37.59 41.32 41.54 36.88 38.56 35.33 26.81 31.11 35.39 36.79 36.84 34.05 34.20 26.81 24.53 26.57 26.48 28.97 38.03 37.94 37.92 38.89 39.49 40.55 40.96 41.40
33.94 36.92 45.00 47.38 30.91 32.51 37.49 38.64 40.58 39.81 40.66 40.73 39.50 40.58 39.86 36.82 32.92 36.52 37.31 39.47 41.30 39.96 37.71 38.60 31.69 22.99 26.96 32.03 34.61 32.17 34.36 35.83 35.04 30.62 26.78 22.41 29.56 38.88 38.38 37.67 39.50 39.36 40.01 39.92 40.28
34.33 31.32 34.64 42.52 40.39 36.73 35.77 36.20 36.74 42.61 41.33 42.73 41.06 41.35 38.94 36.86 39.23 35.72 37.14 40.04 40.74 41.33 41.95 41.25 35.25 30.08 26.80 30.31 34.66 30.00 33.23 35.36 34.37 27.06 30.45 29.14 33.06 33.96 35.23 37.07 38.82 39.23 39.34 39.09 39.43
33.02 31.55 32.98 32.04 32.97 37.48 37.73 37.66 36.09 36.41 41.49 43.19 40.80 39.87 38.05 34.99 35.88 36.10 37.91 38.13 39.33 40.00 39.43 38.56 27.46 32.51 32.45 33.87 33.82 32.53 32.77 34.08 33.16 33.97 29.61 33.21 33.21 37.29 36.95 37.83 38.76 39.11 38.71 38.94 39.30
33.11 32.63 35.63 36.30 37.08 36.70 36.90 35.32 36.02 37.32 38.70 37.50 38.07 40.15 40.66 36.58 37.74 34.83 37.27 37.51 36.54 38.07 36.96 38.11 28.41 30.44 26.50 33.34 33.63 29.66 33.58 34.74 34.79 35.21 34.32 34.66 33.77 40.75 37.71 37.95 38.59 39.51 39.43 39.02 39.27
37.75 38.54 37.81 34.50 35.15 34.19 34.18 36.07 36.89 39.01 39.75 41.39 40.46 39.71 38.45 39.23 41.16 41.09 41.24 40.54 39.45 37.56 35.78 33.23 28.92 25.01 18.86 31.63 30.07 24.52 31.79 33.39 34.26 36.20 35.80 31.92 37.17 40.68 38.77 38.16 38.99 39.19 39.63 39.72 40.04
MSLP
1006.82 1007.48 1008.19 1008.94 1009.20 1009.79 1009.95 1010.36 1010.86 1011.53 1011.96 1012.50 1012.86 1013.21 1013.41 1013.77 1014.46 1014.71 1013.42 1012.42 1012.58 1012.83 1013.17 1013.12 1013.09 1012.85 1013.32 1013.26 1013.09 1012.67 1012.47 1011.76 1010.93 1010.85 1011.66 1012.03 1012.30 1012.65 1012.89 1013.30 1013.61 1014.19 1014.85 1014.85 1015.87
1006.33 1006.73 1007.72 1008.42 1009.16 1009.48 1009.96 1010.27 1010.78 1011.30 1011.88 1012.15 1012.61 1013.18 1013.55 1013.94 1014.19 1013.74 1012.47 1012.26 1012.27 1012.77 1012.88 1012.66 1012.86 1012.86 1013.43 1013.13 1013.04 1012.74 1012.25 1011.43 1010.79 1010.65 1011.38 1012.00 1012.36 1012.92 1013.23 1013.61 1014.10 1014.89 1015.53 1015.73 1016.18
1005.93 1006.50 1007.20 1007.99 1008.69 1009.40 1009.83 1010.38 1010.64 1011.07 1011.50 1012.10 1012.69 1013.35 1013.65 1013.93 1013.77 1012.08 1011.71 1012.03 1012.26 1012.73 1012.48 1012.35 1012.46 1012.78 1013.24 1012.91 1012.73 1012.41 1012.05 1011.40 1011.02 1011.16 1011.23 1011.90 1012.45 1012.62 1013.11 1013.81 1013.75 1014.60 1015.59 1016.27 1016.54
1005.48 1006.09 1006.75 1007.53 1008.39 1009.12 1009.87 1010.25 1010.64 1010.82 1011.19 1012.10 1012.51 1013.29 1013.81 1013.86 1013.03 1011.82 1011.75 1011.69 1012.12 1012.27 1012.49 1012.32 1012.46 1012.71 1012.83 1013.00 1012.39 1012.39 1011.89 1011.93 1011.79 1011.85 1011.84 1012.13 1012.39 1012.77 1013.08 1013.53 1013.46 1013.97 1014.78 1015.93 1016.59
1005.06 1005.71 1006.48 1007.16 1008.03 1008.73 1009.75 1010.14 1010.62 1010.87 1011.14 1011.70 1012.54 1013.01 1013.83 1013.31 1011.66 1011.58 1011.76 1011.85 1012.12 1012.51 1012.36 1012.07 1012.30 1012.38 1012.48 1012.62 1012.59 1012.63 1012.20 1012.40 1012.67 1012.71 1012.54 1012.65 1012.83 1013.16 1013.04 1013.40 1013.60 1013.90 1014.93 1015.74 1016.42
1004.42 1005.26 1006.27 1006.95 1007.71 1008.59 1009.56 1010.10 1010.47 1010.80 1011.22 1011.72 1012.24 1012.78 1012.90 1012.22 1011.21 1011.33 1011.70 1012.00 1011.72 1012.19 1012.14 1012.09 1011.93 1011.84 1012.21 1012.22 1012.76 1012.42 1012.56 1012.89 1013.11 1013.30 1013.31 1013.57 1013.62 1013.54 1013.15 1012.98 1013.80 1014.28 1014.82 1015.29 1015.83
1003.79 1004.69 1006.06 1006.81 1007.60 1008.40 1009.36 1010.02 1010.59 1010.76 1011.25 1011.71 1012.09 1012.19 1012.12 1011.20 1010.93 1011.30 1011.70 1011.58 1011.49 1011.66 1011.90 1011.44 1011.89 1012.03 1012.15 1012.43 1012.87 1012.92 1013.17 1013.44 1013.59 1013.65 1013.99 1014.06 1014.28 1013.84 1013.29 1013.19 1013.84 1014.41 1014.59 1014.78 1015.03
1003.20 1003.80 1005.78 1006.78 1007.44 1008.29 1009.24 1009.99 1010.60 1010.86 1011.33 1011.81 1012.23 1012.02 1011.57 1011.07 1010.99 1011.35 1011.39 1011.67 1011.79 1011.52 1011.71 1011.70 1012.04 1012.39 1012.62 1012.84 1013.18 1013.41 1013.53 1013.91 1013.62 1014.10 1014.49 1014.66 1013.95 1013.38 1013.18 1013.52 1014.00 1014.18 1014.28 1014.48 1014.58
1002.84 1003.55 1005.59 1006.74 1007.06 1008.24 1009.11 1010.07 1010.84 1011.20 1011.49 1011.91 1012.31 1011.83 1011.39 1011.44 1011.26 1011.23 1011.45 1011.76 1011.97 1011.95 1012.17 1012.20 1012.41 1012.83 1012.97 1013.19 1013.58 1013.55 1013.73 1013.82 1014.39 1014.42 1014.59 1015.02 1014.31 1013.36 1013.36 1013.61 1014.00 1014.02 1013.93 1014.01 1014.20
1002.74 1003.56 1004.95 1006.37 1007.05 1008.26 1009.21 1010.07 1011.04 1011.52 1011.67 1011.83 1011.68 1011.91 1011.19 1010.68 1010.67 1011.07 1011.28 1011.61 1011.94 1012.23 1012.75 1012.62 1012.72 1012.97 1012.98 1012.95 1013.15 1013.41 1013.90 1013.81 1014.24 1014.81 1014.97 1015.28 1014.73 1014.04 1013.83 1013.87 1014.00 1013.77 1013.66 1013.76 1013.74
1002.17 1003.25 1004.43 1006.00 1007.07 1008.12 1009.20 1010.09 1011.26 1011.71 1010.93 1010.20 1010.14 1009.94 1009.43 1010.37 1010.68 1011.22 1011.23 1011.47 1011.86 1012.29 1012.52 1012.63 1012.67 1012.52 1012.86 1012.92 1012.75 1013.00 1013.36 1014.10 1014.19 1015.31 1015.39 1015.42 1015.10 1014.48 1013.91 1013.80 1013.89 1013.70 1013.43 1013.53 1013.27
1001.84 1003.22 1004.41 1005.95 1006.99 1007.86 1008.28 1007.68 1007.50 1007.64 1010.16 1010.25 1010.08 1010.26 1010.18 1010.45 1010.67 1011.17 1011.01 1011.40 1011.79 1012.20 1012.12 1012.69 1012.37 1012.32 1012.62 1012.77 1012.99 1013.10 1013.66 1014.21 1014.90 1015.36 1015.78 1015.70 1015.24 1014.57 1013.82 1013.37 1013.14 1013.09 1013.24 1013.21 1013.10
1001.61 1002.99 1004.22 1005.64 1006.84 1007.95 1007.36 1006.98 1007.31 1007.32 1009.21 1010.53 1010.58 1010.15 1010.42 1010.66 1010.43 1010.74 1011.12 1011.20 1011.43 1011.93 1011.93 1011.82 1011.77 1011.87 1012.35 1012.91 1013.31 1013.59 1013.82 1014.26 1015.22 1015.91 1016.10 1016.07 1015.53 1014.49 1013.01 1012.70 1012.77 1012.39 1012.58 1012.71 1012.81
1001.18 1002.74 1003.80 1005.26 1007.05 1007.04 1007.17 1007.07 1007.14 1007.44 1008.95 1010.34 1010.45 1009.89 1010.37 1010.31 1010.53 1010.48 1010.92 1011.01 1011.10 1011.33 1011.69 1011.95 1011.85 1012.05 1012.63 1013.27 1013.74 1014.19 1014.21 1014.78 1015.60 1016.34 1016.80 1016.56 1015.87 1014.03 1012.89 1012.48 1012.65 1012.65 1012.55 1012.59 1012.81
1001.00 1002.31 1003.26 1004.31 1004.78 1006.28 1006.54 1006.93 1007.35 1007.67 1008.60 1008.82 1009.84 1009.36 1009.92 1010.32 1010.35 1011.14 1011.12 1011.12 1010.98 1010.79 1011.10 1012.17 1012.13 1012.41 1012.98 1013.25 1013.94 1014.59 1014.51 1015.35 1016.23 1016.87 1017.27 1016.94 1016.45 1013.86 1013.03 1012.68 1012.58 1012.31 1012.41 1012.71 1013.09
1000.72 1002.06 1003.35 1004.79 1005.25 1006.34 1006.46 1007.19 1007.86 1008.50 1007.95 1008.45 1008.99 1009.19 1010.09 1010.15 1010.63 1011.22 1011.57 1011.42 1011.06 1011.07 1011.53 1012.75 1012.66 1012.74 1013.13 1013.83 1014.10 1015.02 1015.66 1016.45 1017.03 1017.69 1018.11 1017.07 1016.53 1014.12 1013.39 1012.56 1011.97 1012.22 1012.25 1013.10 1013.74
1000.66 1002.01 1003.37 1004.19 1004.66 1005.78 1006.44 1007.35 1008.82 1007.89 1007.19 1008.39 1008.45 1008.91 1009.13 1010.09 1010.87 1010.83 1011.51 1011.39 1010.99 1011.65 1012.26 1013.18 1013.51 1013.67 1013.77 1014.51 1015.04 1015.15 1016.10 1017.63 1018.50 1018.88 1018.79 1017.49 1016.68 1013.69 1012.45 1012.08 1011.98 1012.29 1012.82 1013.50 1014.29
1000.59 1002.20 1003.31 1004.31 1004.38 1005.69 1006.48 1007.57 1007.39 1006.04 1006.17 1006.86 1007.41 1008.67 1008.87 1009.74 1010.53 1010.72 1011.36 1011.34 1010.98 1010.95 1011.87 1012.79 1014.05 1013.95 1013.91 1014.07 1014.58 1015.13 1015.48 1016.49 1018.08 1019.17 1019.13 1018.25 1016.11 1012.86 1011.62 1012.04 1012.35 1012.60 1013.20 1014.03 1014.80
1000.60 1002.23 1003.43 1004.24 1004.46 1005.57 1006.05 1006.53 1004.77 1004.34 1005.35 1006.41 1007.75 1008.27 1008.78 1009.19 1009.55 1010.42 1010.71 1010.60 1010.50 1010.62 1011.06 1011.59 1012.88 1013.35 1013.88 1013.99 1014.42 1015.40 1015.40 1015.63 1017.58 1019.43 1019.07 1017.53 1014.95 1012.86 1012.09 1012.18 1012.49 1013.07 1013.90 1014.54 1015.16
999.75 1001.68 1003.04 1003.70 1004.44 1005.66 1006.03 1004.86 1004.78 1004.26 1004.85 1005.95 1006.55 1007.18 1007.32 1008.28 1009.08 1009.62 1009.94 1009.19 1009.52 1009.81 1010.07 1010.68 1012.93 1014.14 1014.58 1014.40 1014.39 1014.35 1014.75 1015.87 1016.78 1018.61 1018.75 1016.37 1014.69 1012.52 1012.20 1012.13 1012.44 1013.31 1014.03 1014.92 1015.65
1000.07 1001.53 1003.15 1003.29 1004.30 1005.75 1004.92 1005.15 1005.11 1004.81 1004.87 1005.31 1005.54 1006.33 1006.67 1007.33 1008.17 1008.93 1008.67 1008.60 1008.68 1009.41 1010.27 1011.04 1012.02 1014.96 1015.11 1014.33 1013.76 1014.75 1014.53 1015.01 1015.79 1016.75 1016.71 1015.95 1013.66 1011.16 1010.88 1011.09 1011.55 1012.60 1013.79 1014.89 1015.82
1000.42 1002.71 1003.28 1002.93 1005.34 1006.03 1005.72 1005.11 1005.38 1005.27 1005.20 1005.19 1005.14 1005.53 1005.87 1007.01 1007.93 1008.67 1008.38 1008.10 1008.01 1008.77 1009.94 1011.18 1012.00 1014.19 1014.15 1013.63 1013.50 1013.48 1013.28 1014.08 1014.98 1015.94 1016.02 1015.37 1012.40 1010.86 1010.63 1011.01 1011.42 1012.29 1013.23 1014.22 1015.22
1002.21 1003.43 1003.57 1003.17 1003.87 1005.40 1005.97 1006.13 1005.98 1005.78 1005.86 1005.78 1005.44 1005.49 1005.72 1006.66 1007.91 1008.37 1008.47 1008.76 1008.43 1008.96 1009.91 1010.90 1012.04 1013.63 1014.36 1014.33 1013.96 1013.84 1013.60 1013.83 1014.37 1015.14 1015.45 1015.18 1010.93 1010.61 1010.87 1011.30 1011.93 1012.94 1013.94 1014.84 1015.82
1003.02 1003.85 1004.44 1003.75 1003.70 1004.48 1005.11 1006.02 1005.96 1005.79 1005.71 1005.25 1005.24 1005.70 1005.84 1006.73 1007.46 1008.16 1008.90 1009.60 1009.27 1009.56 1010.03 1010.72 1011.90 1012.15 1012.10 1012.75 1013.05 1013.72 1013.57 1013.97 1014.53 1014.86 1013.01 1013.35 1010.64 1011.19 1011.15 1011.55 1012.32 1013.22 1014.02 1015.15 1016.09
1003.20 1003.64 1003.84 1003.32 1003.85 1004.26 1005.14 1005.69 1005.77 1006.23 1006.13 1005.91 1006.29 1006.01 1006.14 1007.36 1008.19 1008.49 1009.47 1010.35 1010.41 1010.59 1010.78 1011.46 1012.43 1012.95 1012.97 1012.99 1013.13 1013.29 1013.32 1013.35 1013.26 1012.12 1013.53 1011.52 1011.94 1008.73 1010.86 1011.43 1012.17 1012.91 1014.12 1015.02 1015.74
1003.62 1003.42 1003.33 1003.47 1004.08 1004.60 1005.02 1005.71 1005.77 1006.20 1005.90 1006.37 1006.44 1006.34 1006.84 1008.01 1008.50 1009.06 1009.52 1010.62 1010.97 1011.74 1011.93 1012.31 1013.64 1013.90 1014.43 1013.91 1013.78 1013.62 1012.92 1012.51 1013.08 1012.63 1012.83 1011.94 1011.57 1007.39 1010.08 1010.71 1011.59 1012.58 1013.53 1014.25 1014.83
1004.37 1003.60 1003.27 1003.85 1004.39 1004.75 1004.89 1005.62 1006.00 1006.43 1006.92 1006.66 1006.64 1007.14 1008.19 1009.44 1009.63 1010.40 1010.61 1011.27 1011.77 1012.25 1012.86 1013.52 1014.37 1015.23 1015.91 1014.97 1014.82 1014.30 1010.96 1012.49 1012.59 1012.37 1012.40 1011.76 1009.12 1009.03 1010.08 1011.05 1011.64 1012.46 1012.86 1013.29 1013.80
Wind_Speed
24 22 20 19 18 19 18 18 16 15 13 13 10 8 7 7 6 4 7 6 7 10 6 6 5 6 2 3 2 3 1 4 2 5 7 8 5 1 1 5 2 3 5 8 13
25 23 21 20 19 20 20 20 18 16 13 12 10 9 9 9 5 11 8 8 10 10 6 8 6 9 2 3 3 2 2 6 7 2 8 9 8 8 4 5 4 7 3 10 11
25 23 21 20 21 19 19 18 18 17 16 13 12 10 10 9 3 8 15 12 9 10 5 8 8 6 4 2 4 5 2 1 6 6 10 10 4 8 5 6 8 13 10 10 9
25 23 22 21 20 19 18 18 17 17 17 16 14 11 9 4 7 3 4 12 11 7 6 7 6 7 3 4 5 2 0 6 4 5 2 9 6 4 5 3 5 7 15 10 9
25 23 22 21 20 19 17 17 17 16 16 15 14 14 7 6 6 4 6 11 9 7 8 8 8 6 6 7 3 3 5 4 7 2 5 5 5 1 7 8 7 9 13 11 9
25 23 21 20 20 19 17 17 16 15 14 15 13 11 3 11 3 8 7 7 10 9 9 8 6 8 4 4 6 3 5 6 5 5 3 1 3 2 7 8 10 8 7 11 11
27 25 21 20 20 18 17 16 15 14 13 13 13 8 6 6 4 6 7 4 6 8 7 6 4 4 2 4 2 1 5 3 3 5 3 3 2 7 2 5 7 9 8 8 10
28 27 22 21 19 18 18 15 13 12 11 11 9 5 4 2 3 6 6 4 3 0 1 6 3 2 2 5 3 4 1 4 5 6 2 2 5 11 11 9 8 8 9 9 9
27 28 25 21 20 18 20 16 12 11 11 10 6 5 4 1 5 7 7 7 6 4 4 2 3 4 2 5 4 4 4 7 2 7 4 5 5 2 6 6 7 8 8 9 9
27 28 27 23 21 21 21 17 13 12 8 6 4 4 5 6 5 6 6 9 5 8 5 4 4 4 4 5 6 7 4 2 6 3 1 3 10 2 5 6 8 8 7 7 9
28 27 28 25 23 26 22 12 9 5 9 4 8 1 11 8 6 6 5 9 6 5 7 7 5 8 9 9 3 1 8 6 5 2 1 6 9 10 8 7 9 8 7 8 9
29 29 29 28 27 26 16 9 13 11 8 5 3 4 5 1 6 9 5 8 7 8 7 4 7 9 9 8 5 4 4 2 4 5 3 6 9 10 9 8 10 9 9 10 7
30 29 30 28 28 18 14 7 8 12 6 1 1 3 4 2 5 13 8 4 11 12 11 8 8 10 8 5 8 5 6 4 5 4 2 2 7 10 11 13 10 8 9 8 10
31 30 31 29 18 15 14 7 2 4 5 7 5 5 4 3 3 9 8 4 7 16 11 7 3 10 8 6 5 6 5 7 8 5 2 3 6 5 6 7 7 8 8 8 7
31 31 31 28 12 18 11 8 4 2 7 16 8 6 7 5 12 3 2 2 7 7 8 3 7 12 9 9 11 2 7 7 5 3 4 3 1 7 4 4 7 11 10 8 4
31 30 32 16 11 17 9 7 3 4 8 7 8 11 9 5 3 5 3 1 3 3 5 4 3 4 4 5 8 8 8 8 4 3 2 8 7 5 6 9 4 1 5 7 7
31 30 25 9 12 14 12 6 5 8 9 9 9 11 15 10 6 7 11 7 7 8 6 5 2 3 4 9 4 5 6 2 1 0 6 4 5 11 4 4 5 6 7 8 7
32 30 18 3 14 13 6 8 6 11 10 5 12 13 13 17 6 8 13 12 12 7 8 8 5 8 5 5 9 10 9 8 9 6 3 5 9 9 13 2 2 2 7 8 8
33 15 10 4 15 9 13 12 10 17 12 9 14 14 8 12 8 9 14 13 15 14 6 10 3 6 7 0 10 6 5 1 8 3 5 7 8 8 6 6 6 7 4 6 7
13 13 9 13 16 8 11 13 3 2 11 16 9 10 16 21 8 13 15 13 10 17 10 1 6 2 2 2 2 3 4 4 2 5 5 7 6 8 3 10 8 8 8 7 7
5 8 2 17 7 9 16 8 3 2 8 10 7 10 10 19 13 13 11 4 21 17 10 2 7 2 4 7 9 2 5 5 6 5 7 2 8 4 5 7 11 10 9 9 8
4 6 1 19 13 7 11 8 4 6 3 4 1 4 13 18 14 12 9 12 9 12 17 5 5 5 8 1 3 9 7 8 7 4 2 3 12 5 7 4 3 10 10 9 9
4 4 3 15 9 15 12 5 6 11 8 7 5 2 2 13 8 7 9 3 7 9 13 9 4 4 2 2 3 3 2 4 5 4 6 7 16 4 6 5 4 7 7 7 7
3 5 2 7 1 18 19 8 9 3 6 3 6 4 7 9 3 13 6 2 5 5 7 8 4 9 13 3 11 6 7 7 6 4 21 11 25 2 4 6 5 6 8 8 8
3 2 1 11 5 19 13 7 17 8 4 7 2 8 10 7 4 3 7 4 4 2 4 6 6 4 5 4 3 4 7 13 18 21 8 22 18 25 7 10 10 8 8 9 9
1 1 1 9 11 15 10 12 15 8 10 10 9 9 7 6 6 11 9 6 4 1 5 1 1 1 4 3 3 2 10 13 16 18 13 19 19 30 2 5 8 11 12 13 14
2 2 2 4 8 10 7 12 14 12 3 6 9 9 11 9 14 10 13 8 6 5 4 4 6 4 2 7 5 8 21 10 9 12 10 17 28 21 14 7 9 11 14 17 16
Wind_Direction
191 189 191 197 188 188 185 178 175 177 175 170 165 162 151 135 122 193 226 215 184 157 205 151 208 136 257 249 278 283 337 228 232 142 120 143 125 297 9 114 69 85 57 105 125
191 185 189 191 196 189 190 182 176 171 172 162 160 162 154 152 197 230 239 151 141 167 195 176 169 133 177 232 214 230 199 235 182 182 143 162 162 149 139 146 142 95 38 112 131
190 183 182 192 194 188 190 185 174 172 161 161 162 167 158 158 196 236 188 164 161 188 265 212 159 168 201 157 219 224 244 295 49 47 129 156 184 144 207 177 183 171 162 144 149
187 179 183 189 185 184 191 181 174 165 160 158 156 159 156 192 204 87 183 157 170 186 245 198 181 164 174 218 210 252 337 348 66 10 37 148 141 160 229 108 41 98 154 151 161
185 178 185 186 180 180 185 177 170 164 156 155 159 150 161 207 254 132 145 156 154 186 202 189 178 184 167 183 72 255 125 41 72 81 47 84 141 226 202 130 80 84 143 158 168
178 176 181 178 172 177 177 175 167 159 157 159 158 152 225 220 113 137 141 163 165 179 201 212 199 206 210 183 179 202 117 122 140 102 57 173 101 30 230 161 139 132 173 168 181
176 170 172 168 169 171 166 168 166 155 156 158 156 174 228 211 139 134 153 184 172 190 186 199 308 139 162 116 68 149 102 87 182 164 99 296 151 228 160 139 181 181 198 194 194
170 158 164 166 161 161 155 154 156 147 148 151 157 194 232 29 113 155 184 123 219 122 311 105 290 71 323 114 130 157 239 162 158 128 147 141 254 223 185 161 201 212 199 204 211
166 157 159 162 152 156 142 139 139 138 139 138 149 242 197 149 164 177 177 159 157 121 61 120 190 148 148 156 117 220 191 198 157 201 113 186 250 183 112 154 221 244 236 196 193
166 158 155 158 152 146 130 128 129 123 146 167 276 200 161 186 131 148 199 152 158 135 122 166 157 166 201 184 179 158 224 201 152 214 29 221 269 281 189 197 229 244 236 222 192
160 157 155 156 153 145 136 132 138 150 199 175 170 50 129 90 113 180 175 165 145 192 159 197 175 188 189 197 238 112 160 169 124 38 157 237 265 256 242 209 221 235 243 240 212
159 159 157 158 155 152 164 172 172 132 163 43 306 83 84 247 128 161 178 168 163 188 145 114 217 190 193 208 128 138 142 168 68 83 104 307 266 260 256 246 222 211 231 229 236
159 160 156 158 153 158 182 197 151 137 128 122 352 140 166 187 150 172 175 205 180 192 187 164 191 207 173 139 159 189 173 150 116 162 192 309 274 238 246 230 249 230 223 241 208
159 159 155 150 154 166 199 153 45 56 110 173 200 203 124 203 122 167 201 221 203 198 184 231 180 153 146 167 160 192 140 111 135 143 192 187 272 313 250 218 220 248 242 236 249
160 160 158 158 133 175 177 104 82 329 150 158 155 131 155 172 128 247 43 74 203 204 138 175 163 149 172 190 175 207 127 130 122 117 77 177 34 261 8 235 236 237 222 223 142
157 159 155 174 141 171 126 115 103 104 214 156 134 168 147 169 87 104 167 316 297 81 46 62 318 141 133 42 144 138 95 85 108 138 268 190 167 248 200 209 220 99 126 130 115
157 156 159 168 159 164 135 138 101 191 146 166 168 166 162 156 130 164 179 176 157 132 180 116 152 57 124 80 81 158 147 111 108 82 220 324 171 233 267 248 210 195 175 152 137
154 154 163 188 144 145 155 164 156 180 178 178 149 148 174 145 175 173 165 191 224 216 155 160 188 158 196 178 175 201 178 159 177 183 205 341 235 255 220 106 68 85 170 142 143
150 157 155 194 152 161 160 189 195 172 142 121 135 154 175 172 149 159 193 198 194 208 206 169 211 88 129 169 134 216 238 111 101 0 70 210 275 300 194 235 216 206 174 167 163
158 159 148 160 150 165 174 194 98 12 117 144 151 184 181 173 161 183 182 196 195 203 226 107 105 39 38 340 343 128 159 64 315 135 219 250 236 228 161 238 229 215 200 185 153
126 128 217 160 119 164 193 187 123 293 147 159 152 174 185 175 177 187 194 212 191 184 199 235 113 110 129 220 166 170 200 209 153 171 174 243 251 195 191 219 207 198 172 166 161
90 112 213 148 147 188 195 175 139 172 21 82 52 126 178 167 180 183 214 184 178 161 191 174 113 155 200 208 231 224 207 179 147 255 268 136 260 152 130 114 145 172 176 165 157
63 84 357 172 150 174 159 139 189 161 175 172 141 145 176 164 161 191 169 336 127 150 160 169 202 91 152 226 103 218 230 244 278 51 207 151 260 202 72 63 41 141 134 137 137
112 125 37 191 61 159 160 170 154 167 165 183 110 110 118 146 22 182 126 21 30 144 107 147 179 193 202 139 150 188 185 213 198 181 232 229 260 216 161 167 167 156 154 146 157
43 96 216 169 168 160 155 123 143 153 188 144 189 187 149 154 123 149 106 115 34 74 141 151 190 204 255 337 83 166 179 201 215 229 189 245 249 262 232 206 198 182 155 165 186
11 170 338 127 137 147 165 175 161 144 151 178 161 166 122 136 176 166 132 149 144 111 169 134 187 131 39 91 314 296 235 213 223 238 244 261 268 262 203 280 165 179 182 190 199
260 275 46 86 143 148 158 148 171 138 343 173 168 120 103 101 92 76 69 77 106 130 138 101 129 85 233 144 86 307 242 190 225 236 220 237 247 272 272 241 197 196 194 204 207